Location: Angwan Shehu
(11.2514°N, 7.4613°E)
Time: 06:16:20
(UTC+00:00)

SR - Pass Details

Date: 22 April 2021
Orbit: 573 x 882 km, 66.7° (Epoch: 12 May)

Event Time Altitude Azimuth Distance (km) Brightness Sun altitude
Rises 17:05:29 0° 322° (NW) 3,282 ? 8.0°
Reaches altitude 10° 17:08:17 10° 311° (NW) 2,300 ? 7.3°
Maximum altitude 17:12:41 28° 254° (WSW) 1,353 ? 6.2°
Drops below altitude 10° 17:16:47 10° 195° (SSW) 2,125 ? 5.2°
Sets 17:19:17 0° 183° (S) 2,986 ? 4.6°
